Time,TemperatureF,DewpointF,PressureIn,WindDirection,WindDirectionDegrees,WindSpeedMPH,WindSpeedGustMPH,Humidity,HourlyPrecipIn,Conditions,Clouds,dailyrainin,SoftwareType,DateUTC
2013-02-25 00:07:00,38.2,32.0,30.05,NNE,27,0.0,0.0,79,0.00,,,0.00,weatherlink.com 1.10,2013-02-25 05:07:00,
2013-02-25 00:22:00,37.8,32.0,30.05,NNE,27,0.0,0.0,80,0.00,,,0.00,weatherlink.com 1.10,2013-02-25 05:22:00,
2013-02-25 00:37:00,37.8,32.0,30.06,NNE,27,0.0,0.0,80,0.00,,,0.00,weatherlink.com 1.10,2013-02-25 05:37:00,
2013-02-25 00:52:00,37.5,32.0,30.07,North,10,0.0,0.0,81,0.00,,,0.00,weatherlink.com 1.10,2013-02-25 05:52:00,
2013-02-25 01:07:00,37.3,32.0,30.07,North,10,0.0,0.0,80,0.00,,,0.00,weatherlink.com 1.10,2013-02-25 06:07:00,
2013-02-25 01:22:00,38.4,30.0,30.07,NE,41,2.0,6.0,72,0.00,,,0.00,weatherlink.com 1.10,2013-02-25 06:22:00,
2013-02-25 01:38:00,40.0,31.0,30.09,East,83,5.0,5.0,69,0.00,,,0.00,weatherlink.com 1.10,2013-02-25 06:38:00,
2013-02-25 01:52:00,39.9,30.0,30.09,NNE,28,0.0,6.0,69,0.00,,,0.00,weatherlink.com 1.10,2013-02-25 06:52:00,
2013-02-25 02:08:00,39.4,30.0,30.09,SSW,197,2.0,9.0,70,0.00,,,0.00,weatherlink.com 1.10,2013-02-25 07:08:00,
2013-02-25 02:23:00,38.7,29.0,30.10,WSW,253,1.0,4.0,69,0.00,,,0.00,weatherlink.com 1.10,2013-02-25 07:23:00,
2013-02-25 02:38:00,38.3,29.0,30.10,NNE,18,0.0,8.0,68,0.00,,,0.00,weatherlink.com 1.10,2013-02-25 07:38:00,
2013-02-25 02:53:00,37.5,28.0,30.10,East,82,1.0,6.0,68,0.00,,,0.00,weatherlink.com 1.10,2013-02-25 07:53:00,
2013-02-25 03:08:00,36.9,28.0,30.11,NE,36,0.0,5.0,70,0.00,,,0.00,weatherlink.com 1.10,2013-02-25 08:08:00,
2013-02-25 03:23:00,36.2,28.0,30.09,NNE,26,2.0,3.0,72,0.00,,,0.00,weatherlink.com 1.10,2013-02-25 08:23:00,
2013-02-25 03:38:00,35.9,27.0,30.09,NNE,15,5.0,5.0,71,0.00,,,0.00,weatherlink.com 1.10,2013-02-25 08:38:00,
2013-02-25 03:53:00,35.7,27.0,30.10,NE,44,0.0,6.0,71,0.00,,,0.00,weatherlink.com 1.10,2013-02-25 08:53:00,
2013-02-25 04:08:00,35.4,27.0,30.11,ENE,77,1.0,6.0,70,0.00,,,0.00,weatherlink.com 1.10,2013-02-25 09:08:00,
2013-02-25 04:23:00,35.1,27.0,30.12,SSE,160,0.0,5.0,71,0.00,,,0.00,weatherlink.com 1.10,2013-02-25 09:23:00,
2013-02-25 04:38:00,34.8,27.0,30.13,NE,44,1.0,2.0,72,0.00,,,0.00,weatherlink.com 1.10,2013-02-25 09:38:00,
2013-02-25 04:53:00,34.5,26.0,30.13,SE,138,1.0,5.0,72,0.00,,,0.00,weatherlink.com 1.10,2013-02-25 09:53:00,
2013-02-25 05:08:00,34.3,26.0,30.13,South,177,0.0,9.0,72,0.00,,,0.00,weatherlink.com 1.10,2013-02-25 10:08:00,
2013-02-25 05:23:00,34.0,26.0,30.14,South,176,2.0,3.0,73,0.00,,,0.00,weatherlink.com 1.10,2013-02-25 10:23:00,
2013-02-25 05:38:00,33.7,26.0,30.14,East,79,0.0,4.0,73,0.00,,,0.00,weatherlink.com 1.10,2013-02-25 10:38:00,
2013-02-25 05:53:00,33.6,26.0,30.15,NNE,19,1.0,5.0,73,0.00,,,0.00,weatherlink.com 1.10,2013-02-25 10:53:00,
2013-02-25 06:08:00,33.5,25.0,30.15,NNE,22,3.0,6.0,71,0.00,,,0.00,weatherlink.com 1.10,2013-02-25 11:08:00,
2013-02-25 06:23:00,33.5,25.0,30.17,ENE,74,3.0,4.0,70,0.00,,,0.00,weatherlink.com 1.10,2013-02-25 11:23:00,
2013-02-25 06:38:00,33.3,24.0,30.17,ENE,64,2.0,2.0,70,0.00,,,0.00,weatherlink.com 1.10,2013-02-25 11:38:00,
2013-02-25 06:53:00,33.2,24.0,30.16,West,273,1.0,3.0,70,0.00,,,0.00,weatherlink.com 1.10,2013-02-25 11:53:00,
2013-02-25 07:08:00,33.1,24.0,30.17,East,90,2.0,6.0,68,0.00,,,0.00,weatherlink.com 1.10,2013-02-25 12:08:00,
2013-02-25 07:23:00,33.1,24.0,30.17,NNW,339,0.0,6.0,68,0.00,,,0.00,weatherlink.com 1.10,2013-02-25 12:23:00,
2013-02-25 07:38:00,33.2,24.0,30.17,ENE,64,4.0,6.0,68,0.00,,,0.00,weatherlink.com 1.10,2013-02-25 12:38:00,
2013-02-25 07:53:00,33.4,23.0,30.18,ESE,115,0.0,4.0,66,0.00,,,0.00,weatherlink.com 1.10,2013-02-25 12:53:00,
2013-02-25 08:08:00,33.7,23.0,30.20,South,178,0.0,3.0,66,0.00,,,0.00,weatherlink.com 1.10,2013-02-25 13:08:00,
2013-02-25 08:23:00,34.1,23.0,30.21,SSW,197,0.0,6.0,64,0.00,,,0.00,weatherlink.com 1.10,2013-02-25 13:23:00,
2013-02-25 08:38:00,34.7,24.0,30.21,NE,55,3.0,6.0,64,0.00,,,0.00,weatherlink.com 1.10,2013-02-25 13:38:00,
2013-02-25 08:53:00,35.2,24.0,30.21,East,85,5.0,8.0,63,0.00,,,0.00,weatherlink.com 1.10,2013-02-25 13:53:00,
2013-02-25 09:08:00,35.6,23.0,30.21,SSW,201,4.0,5.0,61,0.00,,,0.00,weatherlink.com 1.10,2013-02-25 14:08:00,
2013-02-25 09:24:00,36.2,24.0,30.22,NNE,18,1.0,7.0,62,0.00,,,0.00,weatherlink.com 1.10,2013-02-25 14:24:00,
2013-02-25 09:39:00,36.6,23.0,30.22,SE,124,2.0,8.0,59,0.00,,,0.00,weatherlink.com 1.10,2013-02-25 14:39:00,
2013-02-25 09:54:00,36.9,23.0,30.23,NNW,327,1.0,6.0,58,0.00,,,0.00,weatherlink.com 1.10,2013-02-25 14:54:00,
2013-02-25 10:09:00,37.3,23.0,30.23,ESE,114,5.0,8.0,57,0.00,,,0.00,weatherlink.com 1.10,2013-02-25 15:09:00,
2013-02-25 10:24:00,38.5,24.0,30.23,SSW,198,2.0,4.0,57,0.00,,,0.00,weatherlink.com 1.10,2013-02-25 15:24:00,
2013-02-25 10:39:00,39.3,24.0,30.23,NNE,20,4.0,5.0,54,0.00,,,0.00,weatherlink.com 1.10,2013-02-25 15:39:00,
2013-02-25 10:54:00,39.0,24.0,30.22,NNW,348,2.0,5.0,55,0.00,,,0.00,weatherlink.com 1.10,2013-02-25 15:54:00,
2013-02-25 11:09:00,40.1,24.0,30.21,SSW,192,1.0,4.0,53,0.00,,,0.00,weatherlink.com 1.10,2013-02-25 16:09:00,
2013-02-25 11:24:00,40.2,24.0,30.21,SW,218,1.0,4.0,53,0.00,,,0.00,weatherlink.com 1.10,2013-02-25 16:24:00,
2013-02-25 11:39:00,40.8,24.0,30.21,NNW,335,1.0,5.0,52,0.00,,,0.00,weatherlink.com 1.10,2013-02-25 16:39:00,
2013-02-25 11:54:00,41.2,25.0,30.21,SSW,208,2.0,6.0,52,0.00,,,0.00,weatherlink.com 1.10,2013-02-25 16:54:00,
2013-02-25 12:09:00,41.5,24.0,30.20,ESE,120,3.0,4.0,51,0.00,,,0.00,weatherlink.com 1.10,2013-02-25 17:09:00,
2013-02-25 12:24:00,41.9,25.0,30.19,SSE,156,2.0,3.0,51,0.00,,,0.00,weatherlink.com 1.10,2013-02-25 17:24:00,
2013-02-25 12:39:00,42.5,25.0,30.19,SE,131,0.0,4.0,50,0.00,,,0.00,weatherlink.com 1.10,2013-02-25 17:39:00,
2013-02-25 12:54:00,42.7,26.0,30.18,NW,311,1.0,4.0,51,0.00,,,0.00,weatherlink.com 1.10,2013-02-25 17:54:00,
2013-02-25 13:09:00,42.5,24.0,30.17,NE,40,3.0,4.0,49,0.00,,,0.00,weatherlink.com 1.10,2013-02-25 18:09:00,
2013-02-25 13:24:00,42.3,24.0,30.18,South,188,0.0,5.0,49,0.00,,,0.00,weatherlink.com 1.10,2013-02-25 18:24:00,
2013-02-25 13:39:00,42.4,25.0,30.18,North,11,1.0,2.0,51,0.00,,,0.00,weatherlink.com 1.10,2013-02-25 18:39:00,
2013-02-25 13:54:00,42.9,25.0,30.18,SSE,162,0.0,2.0,50,0.00,,,0.00,weatherlink.com 1.10,2013-02-25 18:54:00,
2013-02-25 14:09:00,42.7,25.0,30.19,NE,43,0.0,4.0,49,0.00,,,0.00,weatherlink.com 1.10,2013-02-25 19:09:00,
2013-02-25 14:24:00,42.7,25.0,30.17,WSW,253,1.0,2.0,49,0.00,,,0.00,weatherlink.com 1.10,2013-02-25 19:24:00,
2013-02-25 14:39:00,42.8,26.0,30.16,East,84,0.0,2.0,51,0.00,,,0.00,weatherlink.com 1.10,2013-02-25 19:39:00,
2013-02-25 14:54:00,42.8,25.0,30.17,SSE,163,0.0,4.0,50,0.00,,,0.00,weatherlink.com 1.10,2013-02-25 19:54:00,
2013-02-25 15:09:00,42.5,25.0,30.17,ENE,75,2.0,3.0,51,0.00,,,0.00,weatherlink.com 1.10,2013-02-25 20:09:00,
2013-02-25 15:24:00,42.4,25.0,30.17,NE,41,1.0,4.0,51,0.00,,,0.00,weatherlink.com 1.10,2013-02-25 20:24:00,
2013-02-25 15:39:00,42.4,25.0,30.14,SSE,167,1.0,4.0,51,0.00,,,0.00,weatherlink.com 1.10,2013-02-25 20:39:00,
2013-02-25 15:54:00,42.3,26.0,30.16,NNE,23,0.0,1.0,52,0.00,,,0.00,weatherlink.com 1.10,2013-02-25 20:54:00,
2013-02-25 16:09:00,42.1,26.0,30.16,South,179,0.0,3.0,54,0.00,,,0.00,weatherlink.com 1.10,2013-02-25 21:09:00,
2013-02-25 16:24:00,41.8,26.0,30.16,North,9,0.0,2.0,54,0.00,,,0.00,weatherlink.com 1.10,2013-02-25 21:24:00,
2013-02-25 16:39:00,41.5,26.0,30.16,East,79,1.0,1.0,55,0.00,,,0.00,weatherlink.com 1.10,2013-02-25 21:39:00,
2013-02-25 16:54:00,41.3,27.0,30.16,South,170,0.0,2.0,57,0.00,,,0.00,weatherlink.com 1.10,2013-02-25 21:54:00,
2013-02-25 17:09:00,40.9,26.0,30.16,ESE,123,0.0,1.0,56,0.00,,,0.00,weatherlink.com 1.10,2013-02-25 22:09:00,
2013-02-25 17:24:00,40.5,27.0,30.16,SSE,148,0.0,1.0,59,0.00,,,0.00,weatherlink.com 1.10,2013-02-25 22:24:00,
2013-02-25 17:54:00,39.8,27.0,30.16,SE,135,0.0,0.0,61,0.00,,,0.00,weatherlink.com 1.10,2013-02-25 22:54:00,
2013-02-25 18:09:00,39.3,27.0,30.17,SE,143,0.0,1.0,62,0.00,,,0.00,weatherlink.com 1.10,2013-02-25 23:09:00,
2013-02-25 18:24:00,38.9,26.0,30.17,SE,143,0.0,1.0,61,0.00,,,0.00,weatherlink.com 1.10,2013-02-25 23:24:00,
2013-02-25 18:39:00,38.6,26.0,30.16,SE,137,0.0,1.0,62,0.00,,,0.00,weatherlink.com 1.10,2013-02-25 23:39:00,
2013-02-25 18:54:00,38.3,26.0,30.17,SE,124,0.0,1.0,62,0.00,,,0.00,weatherlink.com 1.10,2013-02-25 23:54:00,
2013-02-25 19:09:00,37.7,26.0,30.18,SE,124,0.0,1.0,63,0.00,,,0.00,weatherlink.com 1.10,2013-02-26 00:09:00,
2013-02-25 19:24:00,37.3,26.0,30.17,SSE,150,0.0,2.0,64,0.00,,,0.00,weatherlink.com 1.10,2013-02-26 00:24:00,
2013-02-25 19:39:00,36.9,26.0,30.17,SSE,150,0.0,1.0,66,0.00,,,0.00,weatherlink.com 1.10,2013-02-26 00:39:00,
2013-02-25 19:54:00,36.3,27.0,30.18,SSE,150,0.0,0.0,68,0.00,,,0.00,weatherlink.com 1.10,2013-02-26 00:54:00,
2013-02-25 20:09:00,35.7,26.0,30.18,SSE,150,0.0,0.0,68,0.00,,,0.00,weatherlink.com 1.10,2013-02-26 01:09:00,
2013-02-25 20:24:00,35.2,26.0,30.18,SSE,150,0.0,0.0,70,0.00,,,0.00,weatherlink.com 1.10,2013-02-26 01:24:00,
2013-02-25 20:39:00,34.7,26.0,30.19,SSE,150,0.0,0.0,71,0.00,,,0.00,weatherlink.com 1.10,2013-02-26 01:39:00,
2013-02-25 20:54:00,34.3,26.0,30.18,SSE,151,0.0,0.0,73,0.00,,,0.00,weatherlink.com 1.10,2013-02-26 01:54:00,
2013-02-25 21:09:00,33.6,26.0,30.18,SSE,151,0.0,0.0,74,0.00,,,0.00,weatherlink.com 1.10,2013-02-26 02:09:00,
2013-02-25 21:24:00,33.3,27.0,30.17,SSE,151,0.0,0.0,77,0.00,,,0.00,weatherlink.com 1.10,2013-02-26 02:24:00,
2013-02-25 21:39:00,33.3,27.0,30.18,SSE,150,0.0,0.0,77,0.00,,,0.00,weatherlink.com 1.10,2013-02-26 02:39:00,
2013-02-25 21:54:00,33.1,27.0,30.17,SSE,150,0.0,0.0,77,0.00,,,0.00,weatherlink.com 1.10,2013-02-26 02:54:00,
2013-02-25 22:09:00,33.4,27.0,30.17,SSE,150,0.0,0.0,76,0.00,,,0.00,weatherlink.com 1.10,2013-02-26 03:09:00,
2013-02-25 22:24:00,33.6,27.0,30.18,SSE,150,0.0,0.0,77,0.00,,,0.00,weatherlink.com 1.10,2013-02-26 03:24:00,
2013-02-25 22:39:00,34.1,27.0,30.16,NE,51,0.0,3.0,75,0.00,,,0.00,weatherlink.com 1.10,2013-02-26 03:39:00,
2013-02-25 22:54:00,34.5,27.0,30.15,SE,135,0.0,1.0,74,0.00,,,0.00,weatherlink.com 1.10,2013-02-26 03:54:00,
2013-02-25 23:09:00,35.1,27.0,30.15,East,94,3.0,4.0,72,0.00,,,0.00,weatherlink.com 1.10,2013-02-26 04:09:00,
2013-02-25 23:24:00,35.6,27.0,30.14,North,11,0.0,5.0,72,0.00,,,0.00,weatherlink.com 1.10,2013-02-26 04:24:00,
2013-02-25 23:39:00,35.6,27.0,30.15,SSE,160,1.0,4.0,72,0.00,,,0.00,weatherlink.com 1.10,2013-02-26 04:39:00,
2013-02-25 23:54:00,35.6,27.0,30.16,SSW,200,1.0,2.0,72,0.00,,,0.00,weatherlink.com 1.10,2013-02-26 04:54:00,